[TLELIST] Archives

 

[list_settings.list_name] Current TLEs

May 8th 2013 PDT

HST 1 20580U 90037B 13127.58339616 .00001827 00000-0 11838-3 0 2343 2 20580 028.4690 179.0025 0002942 280.2726 206.8218 15.03555887 63580 ISS (ZARYA) 1 25544U 98067A 13128.48503631 .00600366 00000-0 93921-2 0 7709 2 25544 051.6543 305.2266 0003764 275.9354 136.4502 15.51043972828540 CXO 1 25867U 99040B 13130.88883492 -.00000721 00000-0 00000+0 0 8997 2 25867 075.1832 341.8445 8590876 277.6230 359.6797 00.37800212 10397 ____________________________________________________________________ These 2-Line ...Continue Reading

[list_settings.list_name] Current TLEs

May 7th 2013 PDT

HST 1 20580U 90037B 13126.45220125 .00002001 00000-0 13082-3 0 2339 2 20580 028.4691 186.4171 0002923 267.6905 204.4105 15.03551354 63418 ISS (ZARYA) 1 25544U 98067A 13127.51897566 .00011232 00000-0 19153-3 0 7620 2 25544 051.6487 310.0045 0007527 252.3268 159.9634 15.51846647828399 CXO 1 25867U 99040B 13128.24403812 -.00000811 00000-0 00000+0 0 8987 2 25867 075.1777 341.9816 8593052 277.6574 359.6046 00.37800914 10383 ____________________________________________________________________ These 2-Line ...Continue Reading

[list_settings.list_name] Current TLEs

May 6th 2013 PDT

HST 1 20580U 90037B 13124.66371749 .00002407 00000-0 15992-3 0 2320 2 20580 028.4695 198.1393 0002905 245.8987 246.4646 15.03543511 63148 ISS (ZARYA) 1 25544U 98067A 13126.43116416 .00011397 00000-0 19439-3 0 7560 2 25544 051.6496 315.4091 0007508 247.6576 203.4440 15.51821711828224 CXO 1 25867U 99040B 13128.24403812 -.00000811 00000-0 00000+0 0 8987 2 25867 075.1777 341.9816 8593052 277.6574 359.6046 00.37800914 10383 ____________________________________________________________________ These 2-Line ...Continue Reading

[list_settings.list_name] Current TLEs

May 5th 2013 PDT

HST 1 20580U 90037B 13124.66371749 .00002407 00000-0 15992-3 0 2320 2 20580 028.4695 198.1393 0002905 245.8987 246.4646 15.03543511 63148 ISS (ZARYA) 1 25544U 98067A 13125.52093100 .00012277 00000-0 20892-3 0 7498 2 25544 051.6491 319.9288 0007475 243.0988 159.6173 15.51803905828080 CXO 1 25867U 99040B 13125.59930284 -.00000679 00000-0 00000+0 0 8960 2 25867 075.1681 342.1157 8597943 277.6860 359.5911 00.37803765 10375 ____________________________________________________________________ These 2-Line ...Continue Reading

[list_settings.list_name] Current TLEs

May 4th 2013 PDT

HST 1 20580U 90037B 13121.47261588 .00002733 00000-0 18330-3 0 2304 2 20580 028.4691 219.0490 0002945 209.0749 256.6760 15.03526634 62660 ISS (ZARYA) 1 25544U 98067A 13122.90694444 .00013045 00000-0 22198-3 0 7344 2 25544 051.6485 332.9137 0007705 230.2991 320.0573 15.51738862827670 CXO 1 25867U 99040B 13125.59930284 -.00000679 00000-0 00000+0 0 8960 2 25867 075.1681 342.1157 8597943 277.6860 359.5911 00.37803765 10375 ____________________________________________________________________ These 2-Line ...Continue Reading

[list_settings.list_name] Current TLEs

May 3rd 2013 PDT

HST 1 20580U 90037B 13121.47261588 .00002733 00000-0 18330-3 0 2304 2 20580 028.4691 219.0490 0002945 209.0749 256.6760 15.03526634 62660 ISS (ZARYA) 1 25544U 98067A 13122.90694444 .00013045 00000-0 22198-3 0 7344 2 25544 051.6485 332.9137 0007705 230.2991 320.0573 15.51738862827670 CXO 1 25867U 99040B 13125.59930284 -.00000679 00000-0 00000+0 0 8960 2 25867 075.1681 342.1157 8597943 277.6860 359.5911 00.37803765 10375 ____________________________________________________________________ These 2-Line ...Continue Reading

[list_settings.list_name] Current TLEs

May 2nd 2013 PDT

HST 1 20580U 90037B 13121.47261588 .00002733 00000-0 18330-3 0 2304 2 20580 028.4691 219.0490 0002945 209.0749 256.6760 15.03526634 62660 ISS (ZARYA) 1 25544U 98067A 13122.43351756 .00013462 00000-0 22892-3 0 7319 2 25544 051.6488 335.2655 0007603 228.8771 195.0566 15.51727363827609 CXO 1 25867U 99040B 13122.95315658 -.00000399 00000-0 00000+0 0 8957 2 25867 075.1486 342.2885 8602733 277.6865 359.4616 00.37803301 10362 ____________________________________________________________________ These 2-Line ...Continue Reading

[list_settings.list_name] Current TLEs

May 1st 2013 PDT

HST 1 20580U 90037B 13119.75086392 .00001871 00000-0 12167-3 0 2292 2 20580 028.4694 230.3343 0002971 189.3269 298.7600 15.03517938 62401 ISS (ZARYA) 1 25544U 98067A 13121.46908944 .00013739 00000-0 23366-3 0 7211 2 25544 051.6485 340.0560 0007707 226.1473 206.7679 15.51701813827450 CXO 1 25867U 99040B 13122.95315658 -.00000399 00000-0 00000+0 0 8957 2 25867 075.1486 342.2885 8602733 277.6865 359.4616 00.37803301 10362 ____________________________________________________________________ These 2-Line ...Continue Reading

[list_settings.list_name] Current TLEs

April 30th 2013 PDT

HST 1 20580U 90037B 13119.75086392 .00001871 00000-0 12167-3 0 2292 2 20580 028.4694 230.3343 0002971 189.3269 298.7600 15.03517938 62401 ISS (ZARYA) 1 25544U 98067A 13120.18514905 .00008847 00000-0 15346-3 0 7133 2 25544 051.6501 346.4350 0008494 216.2040 239.8143 15.51667912827252 CXO 1 25867U 99040B 13122.95315658 -.00000399 00000-0 00000+0 0 8957 2 25867 075.1486 342.2885 8602733 277.6865 359.4616 00.37803301 10362 ____________________________________________________________________ These 2-Line ...Continue Reading

[list_settings.list_name] Current TLEs

April 29th 2013 PDT

HST 1 20580U 90037B 13118.69013220 .00001725 00000-0 11123-3 0 2282 2 20580 028.4695 237.2865 0003007 177.3274 318.0630 15.03513919 62247 ISS (ZARYA) 1 25544U 98067A 13119.47060878 .00021837 00000-0 36702-3 0 7074 2 25544 051.6482 349.9810 0007708 216.9333 205.0433 15.51660290827145 CXO 1 25867U 99040B 13120.30670723 -.00000270 00000-0 00000+0 0 8948 2 25867 075.1311 342.4530 8605740 277.6779 359.3318 00.37800441 10352 ____________________________________________________________________ These 2-Line ...Continue Reading
  • This mailing list is a public mailing list - anyone may join or leave, at any time.
  • This mailing list is announce-only.

International Space Station (ISS) / Hubble Space Telescope (HST) / Chandra X-Ray Observatory Orbital Data via EMAIL

Privacy Policy:

Private list